Location: Bois de la Silve
(44.4667°N, 6.7833°E)
Time: 23:44:28
(UTC+00:00)

USA 238 DEB - Pass Details

Date: 02 November 2020
Orbit: 1001 x 1211 km, 63.5° (Epoch: 22 November)

Event Time Altitude Azimuth Distance (km) Brightness Sun altitude
Exits shadow 02:40:05 27° 9° (N) 1,942 5.2 -37.9°
Drops below altitude 10° 02:43:30 10° 29° (NNE) 2,945 6.4 -37.3°
Sets 02:46:27 0° 37° (NE) 3,939 7.3 -36.8°
